Location: ?????????
(38.0736°N, 23.2119°E)
Time: 12:37:07
(UTC+00:00)

USA 281 - Pass Details

Date: 18 April 2024
Orbit: 1074 x 1084 km, 106.0° (Epoch: 14 May)

Event Time Altitude Azimuth Distance (km) Brightness Sun altitude
Exits shadow 19:59:04 30° 218° (SW) 1,841 4.3 -29.9°
Maximum altitude 20:01:11 36° 254° (WSW) 1,628 4.3 -30.2°
Drops below altitude 10° 20:07:10 10° 320° (NW) 2,927 6.4 -30.9°
Sets 20:09:56 0° 329° (NNW) 3,889 7.3 -31.3°
